Regional Weather Roundup
Issued by NWS

Home | Current Version | Previous Version | Graphics & Text | Print | Product List | Glossary On
Versions: 1 2 3 4 5 6 7 8 9 10 11 12 13 14 15 16 17 18 19 20 21 22 23 24 25 26 27 28 29 30 31 32 33 34 35 36 37 38 39 40 41 42 43 44 45 46 47 48 49 50
000
ASUS43 KLOT 201103
RWRIL

ILLINOIS REGIONAL WEATHER ROUNDUP
NATIONAL WEATHER SERVICE CHICAGO/ROMEOVILLE IL
500 AM CST MON FEB 20 2017

NOTE: "FAIR" INDICATES FEW OR NO CLOUDS BELOW 12,000 FEET WITH NO
SIGNIFICANT WEATHER AND/OR OBSTRUCTIONS TO VISIBILITY.

* THESE STATIONS ARE NOT UNDER NWS QUALITY CONTROL. THEY ALSO MAY NOT
  REPORT WEATHER SUCH AS PRECIPITATION OR FOG.

ILZ001-002-007-009-015-016-024-201200-
NORTHWEST ILLINOIS

CITY           SKY/WX    TMP DP  RH WIND       PRES   REMARKS
MOLINE         PTCLDY    49  45  86 SE6       30.01R FOG
STERLING*      PTCLDY    47  46  97 SE8       30.05S FOG
SAVANNA*       CLOUDY    48  46  93 SE7       30.03S FOG
$$

ILZ003-004-008-010-011-017-018-201200-
NORTH CENTRAL ILLINOIS

CITY           SKY/WX    TMP DP  RH WIND       PRES   REMARKS
ROCKFORD       CLOUDY    47  43  86 SE5       30.10R
FREEPORT*      PTCLDY    43  42  94 E6        30.07S FOG
ROCHELLE*      CLOUDY    42  42  97 SE9       30.09R FOG
DE KALB*       CLOUDY    45  43  95 SE8       30.10R FOG
PERU*          PTCLDY    46  44  91 S6        30.08R FOG
$$

ILZ005-006-012>014-019>023-201200-
NORTHEAST ILLINOIS

CITY           SKY/WX    TMP DP  RH WIND       PRES   REMARKS
CHICAGO-OHARE  CLOUDY    46  42  86 SE8       30.10S
CHICAGO-MIDWAY CLOUDY    47  42  83 SE7       30.12R FOG
AURORA         CLOUDY    45  42  89 SE5       30.10R FOG
LANSING*       MOCLDY    42  42  99 CALM      30.13S FOG
JOLIET*        CLOUDY    47  46  96 SE6       30.11S FOG
WAUKEGAN       CLOUDY    38  33  82 SE6       30.11S WCI  33
DUPAGE AIRPORT CLOUDY    46  43  89 SE5       30.09S FOG
KANKAKEE*      CLOUDY    45  44  97 CALM      30.13S FOG
WHEELING       CLOUDY    40  35  83 E5        30.12S
MORRIS*          N/A     43  42  96 CALM      30.09S FOG
ROMEOVILLE*    PTCLDY    46  46 100 SE9       30.10S FOG
NORTHERLY ISL    N/A     39  36  89 SE2         N/A
$$

LMZ740>746-201200-
SOUTHERN LAKE MICHIGAN

STATION/POSITION SKY/WX   TEMP    WIND        PRES    VSBY  WAVE
                          AIR SEA DIR/SP/G                  HT/PER
                          (F)     (DEG/KT/KT) (MB)    (MI)  (FT/S)
HARRISON CRIB              41     150/ 10/ 10   N/A
BURNHAM HARBOR             39     140/  1/  4   N/A
CALUMET HARBOR             45     130/  2/  3 1019.5F
BURNS HARBOR               52     150/  9/ 11 1021.0S
MICHIGAN CITY              47     100/ 10/ 11   N/A
$$

ILZ025>027-034>036-040-047-049-050-058-095>099-201200-
WEST-CENTRAL ILLINOIS

CITY           SKY/WX    TMP DP  RH WIND       PRES   REMARKS
QUINCY         CLOUDY    54  52  93 SE9       29.98F
GALESBURG*     MOCLDY    48  48  99 SE6         N/A  FOG
MACOMB*        PTCLDY    49  49  97 SE12      30.03S FOG
JACKSONVILLE*  MOCLDY    49  49  99 SE7       30.05S FOG
PITTSFIELD*    CLOUDY    51  51  98 SE8       30.03S FOG
$$

ILZ028>032-037-038-041>044-048-051>054-059>061-201200-
CENTRAL ILLINOIS

CITY           SKY/WX    TMP DP  RH WIND       PRES   REMARKS
PONTIAC        FOG       44  43  98 SE12      30.11R VSB 1/4
BLOOMINGTON    LGT RAIN  46  45  96 SE10      30.11R VSB 1/2
DECATUR        FOG       50  49  96 SE9       30.11R VSB 1/2
PEORIA         FOG       48  48 100 SE10      30.07S VSB 1/2
LACON*         CLOUDY    46  46  99 S6        30.07R FOG
LINCOLN*       DRZL/FOG  48  48 100 SE9       30.09R VSB 1/4
SPRINGFIELD    CLOUDY    51  50  96 SE9       30.08R FOG
TAYLORVILLE    FOG       49  49 100 SE10      30.09R VSB 3/4
$$

ILZ033-039-045-046-055>057-062-063-201200-
EAST-CENTRAL ILLINOIS

CITY           SKY/WX    TMP DP  RH WIND       PRES   REMARKS
CHAMPAIGN      FOG       45  44  97 E8        30.13R VSB 1/4
RANTOUL*       DRZL/FOG  47  46  99 SE8       30.13S VSB 1/4
MATTOON        FOG       47  47 100 S9        30.12R VSB 1/4
PARIS*         FOG       42  42 100 SE6       30.16R VSB 1/4
$$

ILZ079-100>102-201200-
SOUTHWEST ILLINOIS

CITY           SKY/WX    TMP DP  RH WIND       PRES   REMARKS
ALTON          CLOUDY    48  48  99 E8        30.06S FOG
BELLEVILLE     CLOUDY    48  48 100 NE3       30.05S FOG
CAHOKIA*       MOCLDY    52  49  89 SE6       30.04F FOG
SPARTA*        MOCLDY    50  49  97 SE8       30.07S FOG
$$

ILZ064>066-069>071-074>076-080>082-084>086-088>090-092>094-201200-
SOUTH-CENTRAL ILLINOIS

CITY           SKY/WX    TMP DP  RH WIND       PRES   REMARKS
CARBONDALE     MOCLDY    48  48 100 E5        30.08F FOG
CAIRO*         FOG       45  45 100 CALM      30.08F VSB 3/4
EFFINGHAM*     FOG       46  46 100 E7        30.14S VSB 1/2
MARION         MOCLDY    52  50  93 E6        30.10S
MT. VERNON     CLOUDY    48  47  96 E5        30.11S FOG
CENTRALIA*     PTCLDY    49  49 100 SE6       30.08F FOG
SALEM*         CLOUDY    50  49  95 E8        30.10S FOG
METROPOLIS*      N/A     49  49  99 CALM      30.10F FOG
$$

ILZ067-068-072-073-078-083-087-091-201200-
SOUTHEAST ILLINOIS

CITY           SKY/WX    TMP DP  RH WIND       PRES   REMARKS
LAWRENCEVILLE  FOG       42  42 100 CALM      30.17R VSB 1/4
FLORA*         FOG       46  45  99 E5        30.13S VSB 1/4
FAIRFIELD*       N/A     45  45 100 CALM      30.12S FOG
HARRISBURG*    MOCLDY    47  47 100 E5        30.13S FOG
ROBINSON*      FOG       41  41 100 CALM      30.17R VSB 1/4
CARMI*         FOG       40  40 100 E6        30.13S VSB 1/4
$$

ABBREVIATIONS USED IN REMARKS
   TC - TEMPERATURE IN CELSIUS
  WCI - WIND CHILL INDEX
   HX - HEAT INDEX
  VSB - VISIBILITY
$$




USA.gov is the U.S. government's official web portal to all federal, state and local government web resources and services.